• Join FlightAware (Why Join?)
  • Login
  • US Flag 
11:10AM EST


 

Airport Tracker/Info


-or-


 

Live Flight TrackerFlight Track Log ✈ EJA583 ✈ 17-Sep-2013 ✈ KAPF - KORL

Flight Track Log - Related Links

Times and Time Zones

All times are in EDT time to prevent confusion due to time zone crossing. See the EJA583 flight status page for this flight to view local times or setup timezone preferences in your user account.

Time Position Orientation Groundspeed Altitude Reporting Facility
EDT Latitude Longitude Course Direction KTS MPH feet Rate Location/Type
04:13PM 26.2261 -81.7522 North 227 261 4,000  Level Miami Center
04:14PM 26.2992 -81.7506 North 251 289 7,400 3,100 Climbing Miami Center
04:15PM 26.3764 -81.7514 359° North 265 305 10,200 2,200 Climbing Miami Center
04:16PM 26.4636 -81.7644 352° North 290 334 11,800 1,600 Climbing Miami Center
04:17PM 26.5694 -81.7850 350° North 324 373 13,400 1,550 Climbing Miami Center
04:18PM 26.6692 -81.8008 352° North 344 396 14,900 1,136 Climbing Miami Center
04:19PM 26.7606 -81.8139 353° North 359 413 15,900 455 Climbing Miami Center
04:20PM 26.8975 -81.8383 351° North 372 428 15,900 1,000 Level Miami Center
04:21PM 26.9992 -81.8544 352° North 372 428 17,900 2,000 Climbing Miami Center
04:22PM 27.0989 -81.8681 353° North 365 420 19,900 1,050 Climbing Miami Center
04:23PM 27.2028 -81.8842 352° North 370 426 20,000 50 Climbing Miami Center
04:24PM 27.3022 -81.9003 352° North 390 449 20,000  Level Miami Center
04:25PM 27.4197 -81.8889 North 385 443 20,000 -150 Level Miami Center
04:26PM 27.5206 -81.8631 13° North 374 430 19,700 -850 Descending Miami Center
04:27PM 27.6178 -81.8319 16° North 374 430 18,300 -1,600 Descending Miami Center
04:28PM 27.7167 -81.8058 13° North 364 419 16,500 -1,783 Descending Miami Center
04:30PM 27.8833 -81.7500 16° North 313 360 13,100 -1,160 Descending Orlando TRACON
04:31PM 27.9833 -81.7500 360° North 308 354 13,000 -143 Descending Orlando TRACON
04:32PM 28.0667 -81.7333 10° North 309 356 12,800 -1,000 Descending Orlando TRACON
04:33PM 28.1333 -81.7167 12° North 289 333 11,100 -1,947 Descending Orlando TRACON
04:34PM 28.2167 -81.7167 360° North 288 331 9,100 -1,900 Descending Orlando TRACON
04:35PM 28.2833 -81.7167 360° North 256 295 7,300 -1,190 Descending Orlando TRACON
04:36PM 28.3667 -81.7167 360° North 246 283 6,600 -1,455 Descending Orlando TRACON
04:37PM 28.4167 -81.6833 30° Northeast 242 278 4,100 -1,700 Descending Orlando TRACON
04:38PM 28.4333 -81.6167 74° East 223 257 3,200 -842 Descending Orlando TRACON
04:39PM 28.4667 -81.5500 60° Northeast 192 221 2,500 -550 Descending Orlando TRACON
04:40PM 28.4833 -81.5000 69° East 196 226 2,100 -209 Descending Orlando TRACON
04:41PM 28.5000 -81.4500 69° East 184 212 2,100 -365 Level Orlando TRACON
04:42PM 28.5167 -81.4000 69° East 149 171 1,400 -650 Descending Orlando TRACON
04:43PM 28.5333 -81.3667 60° Northeast 141 162 800 -600 Descending Orlando TRACON